Regional Weather Roundup
Issued by NWS Sterling, VA

Home | Current Version | Previous Version | Text Only | Print | Product List | Glossary Off
Versions: 1 2 3 4 5 6 7 8 9 10 11 12 13 14 15 16 17 18 19 20 21 22 23 24 25 26 27 28 29 30 31 32 33 34 35 36 37 38 39 40 41 42 43 44 45 46 47 48 49 50

000
ASUS41 KLWX 271311
RWRLWX

REGIONAL WEATHER ROUNDUP
NATIONAL WEATHER SERVICE BALTIMORE MD/WASHINGTON DC
900 AM EDT SAT MAY 27 2017

Note: "FAIR" indicates few or no clouds below 12,000 feet
with no significant weather and/or obstructions to visibility.
 TC=TEMPERATURE CELSIUS

 * =Non NWS site. Station does not report precipitation (e.g. rain,
    snow, etc.), thunder, or fog.

DCZ001-MDZ009-015-VAZ040>042-051-053>054-271400-
WASHINGTON METRO

CITY           SKY/WX    TMP DP  RH WIND       PRES   REMARKS
WASHINGTON NAT PTSUNNY   68  59  73 S3        29.94R
DULLES         CLOUDY    63  57  81 CALM      29.93F
ANDREWS AFB    CLOUDY    68  53  58 E3        29.93R
FT BELVOIR     CLOUDY    69  55  62 S3        29.93S
QUANTICO       MOSUNNY   68  62  81 E3        29.94S
COLLEGE PARK*  CLOUDY    65  58  79 CALM      29.93S
LEESBURG*      CLOUDY    64  61  88 CALM      29.94F
MANASSAS*      MOSUNNY   67  59  75 CALM      29.94S
GAITHERSBURG*  CLOUDY    61  58  90 CALM      29.94F

$$

MDZ006>007-011-014-271400-
BALTIMORE METRO

CITY           SKY/WX    TMP DP  RH WIND       PRES   REMARKS
BWI AIRPORT    CLOUDY    64  56  75 N3        29.92S
MD SCIENCE CTR   N/A     68  55  63 MISG      29.93F
MARTIN STATE   CLOUDY    66  61  82 CALM      29.94S
ANNAPOLIS      PTSUNNY   68  56  65 NW5       29.93R
FORT MEADE*    CLOUDY    63  59  88 CALM      29.95S

$$

MDZ012-015-019>023-271400-
MARYLAND EASTERN SHORE

CITY           SKY/WX    TMP DP  RH WIND       PRES   REMARKS
OCEAN CITY     SUNNY     71  55  56 N5        29.94R
SALISBURY      SUNNY     72  55  55 CALM      29.93R
BAY BRIDGE AP* PTSUNNY   66  57  72 W5        29.93S
CAMBRIDGE*     SUNNY     72  57  60 CALM      29.92S
EASTON*        MOSUNNY   72  55  56 CALM      29.96R

$$

MDZ017>025-271400-
SOUTHERN MARYLAND

CITY           SKY/WX    TMP DP  RH WIND       PRES   REMARKS
PATUXENT RIVER MOSUNNY   70  57  63 VRB3      29.92S
ST INIGOES     SUNNY     72  58  61 CALM      29.92R
LEONARDTOWN*   SUNNY     68  55  64 CALM      29.94S

$$

MDZ003>005-271400-
NORTH CENTRAL MARYLAND

CITY           SKY/WX    TMP DP  RH WIND       PRES   REMARKS
FREDERICK*     CLOUDY    63  63 100 CALM      29.96S
HAGERSTOWN APT CLOUDY    61  57  87 E5        29.92F
WESTMINSTER*   CLOUDY    64  55  72 CALM      29.94S

$$

MDZ501>502-271400-
WESTERN MARYLAND

CITY           SKY/WX    TMP DP  RH WIND       PRES   REMARKS
OAKLAND*       CLOUDY    54  54 100 S9G18     29.95S
CUMBERLAND*    CLOUDY    57  57 100 CALM      29.97R

$$

VAZ025>031-271400-
SHENANDOAH VALLEY

CITY           SKY/WX    TMP DP  RH WIND       PRES   REMARKS
WINCHESTER*    PTSUNNY   61  55  82 CALM      29.93S
FRONT ROYAL*   PTSUNNY   64  57  77 CALM      29.92S
LURAY*         PTSUNNY   63  59  88 CALM      29.92F
NEW MARKET*    MOSUNNY   63  56  78 CALM      29.91F
STAUNTON*      SUNNY     63  57  80 S3        29.95F
WAYNESBORO*    MOSUNNY   65  59  79 CALM      29.94F

$$

WVZ021-048>050-054>055-271400-
EASTERN WEST VIRGINIA PANHANDLE

CITY           SKY/WX    TMP DP  RH WIND       PRES   REMARKS
MARTINSBURG    MOSUNNY   63  58  83 CALM      29.92S
PETERSBURG*    CLOUDY    62  57  85 CALM      29.93R

$$

VAZ036>039-050-271400-
CENTRAL FOOTHILLS

CITY           SKY/WX    TMP DP  RH WIND       PRES   REMARKS
CHARLOTTESVILL CLOUDY    63  58  83 CALM      29.91F
CULPEPER*      CLOUDY    66  59  78 CALM      29.93F
ORANGE*        CLOUDY    63  59  88 CALM      29.92F
GORDONSVILLE*  CLOUDY    64  59  85 CALM      29.92F
WARRENTON*     MOSUNNY   69  56  63 E3        29.92F

$$

VAZ055>057-271400-
NORTH AND CENTRAL PIEDMONT

CITY           SKY/WX    TMP DP  RH WIND       PRES   REMARKS
FREDERICKSBRG* CLOUDY    67  58  73 CALM      29.92S
STAFFORD*      CLOUDY    68  59  74 CALM      29.97S

$$

NCZ024-NYZ072-PAZ021-071-VAZ022-071-271400-
OTHER REGIONAL OBSERVATIONS

CITY           SKY/WX    TMP DP  RH WIND       PRES   REMARKS
NEW YORK CITY  SUNNY     65  54  67 N6        29.90S
PHILADELPHIA   MOSUNNY   67  52  58 NW9       29.91R
PITTSBURGH     LGT RAIN  58  57  97 CALM      29.90R
ROANOKE        MOSUNNY   69  59  70 CALM      29.96F
RICHMOND       MOSUNNY   69  60  73 E5        29.93S
RALEIGH        MOSUNNY   72  62  71 SW5       29.96S

$$

ANZ530>537-271400-
MARINE OBSERVATIONS

STATION/POSITION TIME  TEMP    WIND        PRES
                       AIR SEA DIR/SP/G
                 (UTC) (F)     (DEG/KT/KT) (MB)
THOMAS PT LIGHT  1300   64 64  270/  3/  3   N/A
BALT KEY BRIDGE  1248   65     270/  2/  3 1013.5R
COVE POINT       1248   72      CALM  /  1 1013.9R
LEWISETTA        1248   68 68  110/  2/  3 1013.1R
SOLOMONS ISLAND  1248   69 67     CALM       N/A
PINEY POINT      1248          160/  2/  2   N/A

$$




USA.gov is the U.S. government's official web portal to all federal, state and local government web resources and services.